Flag for Switzerland Weather past 2 weeks in Adliswil, Zurich, Switzerland

Now
53 °F

Cool.


Feels Like: 47 °F
Forecast: 35 / 38 °F
Wind: 21 mph from Southwest

Location: Zurich Town / Ville.

Current Time: Mar 31, 2015 at 9:29:14 AM

Latest Report: Mar 31, 2015 at 8:00 AM


Visibility: N/A

Pressure: 29.83 "Hg

Humidity: 73%

Dew point: 44 °F

Location of AdliswilLocation

Historic Weather in Adliswil — Graph

°F

Adliswil temperature yesterday

Maximum temperature yesterday: 51 °F (at 4:00 PM)
Minimum temperature yesterday: 46 °F (at 4:00 AM)
Average temperature yesterday: 48 °F

Past Weeks' High & Low Weather Summary

 TemperatureHumidityPressure
High62 °F (Mar 18, 2:40 PM)97% (Mar 22, 1:00 AM)30.31 "Hg (Mar 22, 1:00 AM)
Low35 °F (Mar 22, 5:00 AM)34% (Mar 24, 5:00 PM)29.59 "Hg (Mar 25, 2:00 PM)
Average46 °F70%30.02 "Hg
* Reported Mar 16 6:00 AM — Mar 31 7:00 AM, Adliswil, Weather by CustomWeather, © 2015

Note: Actual official high and low records may vary slightly from our data, if they occured in-between our weather recording intervals... More about our weather records

Advertising

Adliswil weather history for previous 24 hours

 ConditionsComfort  
Time TempWeatherWind HumidityBarometerVisibility
7:00 AM
Tue, Mar 31
54 °FCool.20 mph70%29.81 "HgN/A
6:00 AM53 °FCool.21 mph73%29.83 "HgN/A
5:00 AM51 °FCool.23 mph76%29.84 "HgN/A
4:00 AM50 °FCool.21 mph78%29.89 "HgN/A
3:00 AM47 °FCool.17 mph84%29.94 "HgN/A
2:00 AM46 °FCool.13 mph86%29.98 "HgN/A
1:00 AM47 °FCool.13 mph77%29.98 "HgN/A
12:00 AM48 °FCool.10 mph65%30.01 "HgN/A
11:00 PM
Mon, Mar 30
48 °FCool.8 mph65%30.03 "HgN/A
10:00 PM48 °FCool.12 mph65%30.01 "HgN/A
9:00 PM48 °FCool.14 mph62%30.01 "HgN/A
8:00 PM48 °FCool.14 mph65%29.98 "HgN/A
7:00 PM49 °FCool.17 mph62%29.95 "HgN/A
6:00 PM50 °FCool.15 mph65%29.93 "HgN/A
5:00 PM51 °FCool.16 mph65%29.88 "HgN/A
4:00 PM51 °FCool.16 mph66%29.87 "HgN/A
3:00 PM50 °FCool.24 mph72%29.86 "HgN/A
2:00 PM49 °FOvercast.16 mph80%29.84 "HgN/A
1:00 PM48 °FCool.15 mph89%29.82 "HgN/A
12:00 PM48 °FCool.17 mph92%29.79 "HgN/A
11:00 AM47 °FCool.13 mph95%29.77 "HgN/A
10:00 AM48 °FCool.22 mph88%29.73 "HgN/A
9:00 AM48 °FCool.21 mph87%29.70 "HgN/A
Weather by CustomWeather, © 2015

See weather overviewHow to use our weather pages